Weather History for Concord, NH

Change the Weather History Date:

Tuesday, May 21, 2013

  Actual Average Record
Temperature  
Mean Temperature 63 °F 57 °F  
Max Temperature 76 °F 70 °F 93 °F (1871)
Min Temperature 50 °F 44 °F 28 °F (1974)
Degree Days  
Heating Degree Days 2 8  
Month to date heating degree days 177 234  
Since 1 July heating degree days 6679 7081  
Cooling Degree Days 0 1  
Month to date cooling degree days 3 4  
Year to date cooling degree days 3 6  
Growing Degree Days 12 (Base 50)    
Moisture  
Dew Point 54 °F    
Average Humidity 82    
Maximum Humidity 100    
Minimum Humidity 64    
Precipitation  
Precipitation 0.83 in 0.12 in 0.83 in (1954)
Month to date precipitation 1.69 2.39  
Year to date precipitation 10.38 14.39  
Snow  
Snow 0.00 in 0.00 in T in (1892)
Month to date snowfall 0.0 0.2  
Since 1 July snowfall 83.4 61.6  
Snow Depth 0.00 in    
Sea Level Pressure  
Sea Level Pressure 29.97 in    
Wind  
Wind Speed 5 mph (East)    
Max Wind Speed 16 mph    
Max Gust Speed 25 mph    
Visibility 7 miles    
Events Rain , Thunderstorm    
T = Trace of Precipitation, MM = Missing Value Source: NWS Daily Summary

Daily Weather History Graph

Daily Weather History Graph

Search for Another Location

Airport:

Trip Planner

Search our weather history database for the weather conditions in past years. The results will help you decide how hot, cold, wet, or windy it might be!

Date:

Astronomy

May. 21, 2013 Rise Set
Actual Time 5:16 AM EDT 8:09 PM EDT
Civil Twilight 4:42 AM EDT 8:43 PM EDT
Nautical Twilight 4:00 AM EDT 9:25 PM EDT
Astronomical Twilight 3:10 AM EDT 10:15 PM EDT
Moon 4:14 PM EDT (5/21) 2:49 AM EDT (5/21)
Length of Visible Light 16h 00m
Length of Day
14h 53m
Waxing Gibbous, 84% of the Moon is Illuminated
May 21
Waxing Gibbous
May 25
Full
May 31
Last Quarter
Jun 8
New
Jun 16
First Quarter

Hourly Weather History & Observations

Time (EDT) Temp. Dew Point Humidity Pressure Visibility Wind Dir Wind Speed Gust Speed Precip Events Conditions
12:51 AM 55.9 °F 55.9 °F 100% 29.98 in 5.0 mi Calm Calm - N/A   Partly Cloudy
1:51 AM 57.9 °F 57.0 °F 97% 29.98 in 7.0 mi Calm Calm - N/A   Mostly Cloudy
2:51 AM 55.9 °F 55.9 °F 100% 29.96 in 5.0 mi Calm Calm - N/A   Scattered Clouds
3:24 AM 57.2 °F 57.2 °F 100% 29.95 in 4.0 mi Calm Calm - N/A   Overcast
3:36 AM 57.2 °F 57.2 °F 100% 29.95 in 1.8 mi Calm Calm - N/A   Overcast
3:40 AM 57.2 °F 57.2 °F 100% 29.95 in 2.0 mi Calm Calm - N/A   Mostly Cloudy
3:45 AM 57.2 °F 57.2 °F 100% 29.95 in 3.0 mi Calm Calm - N/A   Mostly Cloudy
3:51 AM 57.0 °F 57.0 °F 100% 29.95 in 5.0 mi Calm Calm - N/A   Scattered Clouds
4:51 AM 57.9 °F 57.9 °F 100% 29.96 in 5.0 mi Calm Calm - N/A   Overcast
5:18 AM 57.2 °F 57.2 °F 100% 29.95 in 6.0 mi Calm Calm - N/A   Overcast
5:51 AM 57.9 °F 57.9 °F 100% 29.95 in 5.0 mi Calm Calm - N/A   Mostly Cloudy
6:46 AM 59.0 °F 57.2 °F 94% 29.95 in 7.0 mi SE 4.6 mph - N/A   Overcast
6:51 AM 59.0 °F 57.9 °F 96% 29.94 in 8.0 mi ESE 5.8 mph - N/A   Overcast
7:51 AM 57.0 °F 55.9 °F 96% 29.97 in 7.0 mi ESE 6.9 mph - N/A   Overcast
8:51 AM 57.0 °F 55.9 °F 96% 29.96 in 8.0 mi ESE 5.8 mph - N/A   Overcast
9:51 AM 59.0 °F 55.9 °F 90% 29.95 in 10.0 mi SE 5.8 mph - N/A   Overcast
10:51 AM 61.0 °F 55.9 °F 83% 29.96 in 10.0 mi Calm Calm - N/A   Overcast
11:25 AM 62.6 °F 57.2 °F 82% 29.94 in 10.0 mi SSE 4.6 mph - N/A   Overcast
11:51 AM 63.0 °F 57.9 °F 84% 29.93 in 10.0 mi ESE 3.5 mph - N/A   Overcast
12:32 PM 68.0 °F 59.0 °F 73% 29.92 in 10.0 mi NE 5.8 mph - N/A   Overcast
12:51 PM 71.1 °F 59.0 °F 66% 29.93 in 10.0 mi Variable 3.5 mph - N/A   Overcast
1:39 PM 73.4 °F 60.8 °F 65% 29.91 in 10.0 mi Calm Calm - N/A   Scattered Clouds
1:51 PM 73.0 °F 60.1 °F 64% 29.91 in 10.0 mi Variable 3.5 mph - N/A   Partly Cloudy
2:51 PM 75.9 °F 62.1 °F 62% 29.90 in 10.0 mi ENE 6.9 mph - N/A   Partly Cloudy
3:51 PM 66.9 °F 55.9 °F 68% 29.92 in 10.0 mi East 15.0 mph - N/A   Clear
4:31 PM 60.8 °F 51.8 °F 72% 29.95 in 10.0 mi East 11.5 mph 25.3 mph N/A   Mostly Cloudy
4:51 PM 57.9 °F 51.1 °F 78% 29.96 in 10.0 mi ENE 10.4 mph 20.7 mph N/A   Overcast
4:59 PM 57.2 °F 51.8 °F 82% 29.97 in 10.0 mi ESE 8.1 mph - N/A   Overcast
5:51 PM 55.0 °F 48.9 °F 80% 29.98 in 10.0 mi NE 10.4 mph - N/A   Overcast
6:51 PM 53.1 °F 48.0 °F 83% 30.02 in 10.0 mi ESE 8.1 mph - N/A   Overcast
7:51 PM 51.1 °F 48.0 °F 89% 30.02 in 10.0 mi East 4.6 mph - N/A   Overcast
8:51 PM 51.1 °F 46.9 °F 86% 30.01 in 10.0 mi ENE 9.2 mph - N/A   Overcast
9:10 PM 50.0 °F 48.2 °F 94% 30.01 in 10.0 mi East 5.8 mph - N/A   Overcast
9:34 PM 50.0 °F 46.4 °F 87% 30.01 in 10.0 mi East 8.1 mph - N/A   Overcast
9:51 PM 50.0 °F 46.9 °F 89% 30.02 in 10.0 mi East 8.1 mph - N/A   Overcast
10:25 PM 50.0 °F 46.4 °F 87% 30.01 in 10.0 mi East 4.6 mph - N/A   Overcast
10:51 PM 50.0 °F 48.9 °F 96% 30.06 in 3.0 mi North 10.4 mph - 0.00 in Rain Light Rain
10:59 PM 50.0 °F 48.2 °F 94% 30.06 in 2.5 mi North 8.1 mph 16.1 mph 0.00 in Rain Light Rain
11:04 PM 50.0 °F 48.2 °F 94% 30.05 in 2.0 mi NE 10.4 mph - 0.05 in Rain , Thunderstorm Heavy Rain
11:13 PM 50.0 °F 50.0 °F 100% 30.03 in 3.0 mi ENE 11.5 mph 17.3 mph 0.13 in Rain , Thunderstorm Thunderstorms and Rain
11:42 PM 50.0 °F 48.2 °F 94% 29.99 in 1.8 mi SE 3.5 mph - 0.31 in Rain , Thunderstorm Heavy Thunderstorms and Rain
11:51 PM 50.0 °F 48.9 °F 96% 30.00 in 1.8 mi SSE 3.5 mph - 0.39 in Rain , Thunderstorm Heavy Thunderstorms and Rain